OPS 4682 DEB, 38389

Orbit data source: Space-Track

OPS 4682 DEB, 38389 is space debris in LEO originally from a launch on Sat, 03 Apr 1965 UTC launched from the Air Force Western Test Range (AFWTR). Debris objects in space refer to the collection of defunct objects orbiting the Earth. Examples of debris include non-operational satellites, rocket bodies, and fragments generated from explosions, collisions, or faulty payload assembly.

Loading next visibility...
Identifier
38389, 1965-027CS
Orbit
LEO
Country
Flag of USUS
Related business
Manufacturer
Unknown
Mission
Spacecraft
Bus & Motor
Unknown
Mass
Unknown
Launch date (UTC)
1965-04-03 (61 years ago)
Launch vehicle
Unknown
Launch site
Air Force Western Test Range (AFWTR)
Object type
Payload
Rocket body
Debris
Shape & HBR
Unknown shape, 0.1 m
Radar Cross Section
Medium (>0.1 m² and <1 m²)

Expand to show TLE details & history
Last TLE update: 1 day ago

TLE from 1 day ago
0 OPS 4682 DEB
1 38389U 65027CS  26234.73084826 -.00000405  00000-0 -13703-2 0  9993
2 38389  90.3210  43.6834 0006434  95.0739 265.1117 13.00007997 90453
Epoch: 2026-08-22T17:32Z
TLE epoch observation values (Epoch: 2026-08-22T17:32:25.289Z)
Latitude
-0.0001°
Longitude
169.54097°
Altitude
1,265.361 km
Speed
7.223 km/s
True Right ascension
02h 54m 44s
True Declination
0° 00' 00"
Sunlit
Object was in daylight at epoch
Visualization orbit readout
Latitude
Unknown
Longitude
Unknown
Altitude
Unknown
Speed
Unknown
Apparent Right ascension
Unknown
Apparent Declination
Unknown
Sunlit
N/A
Visualization observer readout
Local Sidereal Time
15:54:06
Azimuth
Unknown
Elevation
Unknown
Doppler factor
Unknown
Orbital elements
Apogee altitude
1,264.096 km
Perigee altitude
1,254.269 km
Semi-major axis
7,637.319 km
Eccentricity
0.00064
Inclination
90.321°
RAAN
43.6834°
Arg. of periapsis
95.0739°
True anomaly
265.03825°
Mean anomaly
265.1117°
Eccentric anomaly
265.07497°
Mean motion
3.25186 °/min
Orbital period
110.71 mins
BSTAR
-0.0013703
Loading maneuver chart data...
Computing Atmospheric mass density...
Loading historical data...
Loading historical data...
Loading historical data...
Loading historical data...
Loading historical data...
Loading historical data...
Loading historical data...

Documentation

Showing up to 5 results
|